GALAXY 33 (G-33)

Last updated on Mon Oct 20 2025 00:02:50 GMT+0000 (Coordinated Universal Time)

1 54026U 22128A 25292.33183278 .00000000 00000+0 00000+0 0 9995 2 54026 0.0200 237.8745 0001613 322.6793 173.9559 1.00270933 11321
UTC large
Height (km)
Speed (km/s)
/
Latitude / Longitude
Inclination (degrees)
Orbital Period (minutes)
Azimuth
Elevation
Range (km)
Doppler Factor

Next 0 passes for location: London (51.5072 / 0.1276)

Sorry there are no passes over London.